Weather History for Morrisville, VT

Change the Weather History Date:

Thursday, April 24, 2014

  Actual Average Record
Temperature  
Mean Temperature 41 °F 46 °F  
Max Temperature 50 °F 59 °F 79 °F (2001)
Min Temperature 31 °F 33 °F 28 °F (1997)
Degree Days  
Heating Degree Days 24 19  
Month to date heating degree days 582 587  
Since 1 July heating degree days 8088 7674  
Cooling Degree Days 0 0  
Month to date cooling degree days 0 0  
Year to date cooling degree days 0 0  
Moisture  
Dew Point 23 °F    
Average Humidity 53    
Maximum Humidity 69    
Minimum Humidity 36    
Precipitation  
Precipitation 0.00 in 0.07 in 0.35 in (2005)
Month to date precipitation 2.16 1.95  
Year to date precipitation 9.43 7.90  
Sea Level Pressure  
Sea Level Pressure 29.89 in    
Wind  
Wind Speed 11 mph (NNW)    
Max Wind Speed 24 mph    
Max Gust Speed 32 mph    
Visibility 10 miles    
Events      
T = Trace of Precipitation, MM = Missing Value Source: NWS Daily Summary

Daily Weather History Graph

Daily Weather History Graph

Search for Another Location

Airport:

Trip Planner

Search our weather history database for the weather conditions in past years. The results will help you decide how hot, cold, wet, or windy it might be!

Date:

Astronomy

Apr. 24, 2014 Rise Set
Actual Time 5:51 AM EDT 7:46 PM EDT
Civil Twilight 5:20 AM EDT 8:17 PM EDT
Nautical Twilight 4:42 AM EDT 8:56 PM EDT
Astronomical Twilight 4:00 AM EDT 9:38 PM EDT
Moon 3:13 AM EDT (4/24) 2:47 PM EDT (4/24)
Length of Visible Light 14h 57m
Length of Day
13h 54m
Waning Crescent, 24% of the Moon is Illuminated
Apr 24
Waning Crescent
Apr 29
New
May 6
First Quarter
May 14
Full
May 21
Last Quarter

Hourly Weather History & Observations

Time (EDT) Temp. Windchill Dew Point Humidity Pressure Visibility Wind Dir Wind Speed Gust Speed Precip Events Conditions
12:54 AM 39.9 °F 32.5 °F 24.1 °F 53% 29.78 in 10.0 mi NNW 12.7 mph 25.3 mph 0.00 in   Overcast
1:54 AM 39.0 °F 31.0 °F 23.0 °F 53% 29.77 in 10.0 mi NNW 13.8 mph 23.0 mph N/A   Overcast
2:54 AM 37.9 °F 28.9 °F 21.0 °F 51% 29.79 in 10.0 mi NNW 16.1 mph 23.0 mph N/A   Scattered Clouds
3:54 AM 35.1 °F 26.9 °F 19.9 °F 54% 29.80 in 10.0 mi NNW 11.5 mph - N/A   Clear
4:54 AM 35.1 °F 26.9 °F 19.9 °F 54% 29.80 in 10.0 mi NW 11.5 mph 21.9 mph N/A   Mostly Cloudy
5:54 AM 35.1 °F 28.6 °F 19.0 °F 52% 29.81 in 10.0 mi NW 8.1 mph 26.5 mph N/A   Overcast
6:54 AM 34.0 °F 23.8 °F 19.0 °F 54% 29.84 in 10.0 mi NNW 16.1 mph 26.5 mph N/A   Overcast
7:54 AM 34.0 °F 25.0 °F 19.9 °F 56% 29.86 in 10.0 mi NW 12.7 mph 23.0 mph N/A   Overcast
8:54 AM 35.1 °F 25.5 °F 19.9 °F 54% 29.88 in 10.0 mi WNW 15.0 mph 24.2 mph N/A   Overcast
9:54 AM 39.0 °F 30.6 °F 21.0 °F 49% 29.88 in 10.0 mi NNW 15.0 mph 26.5 mph N/A   Partly Cloudy
10:54 AM 39.9 °F 32.1 °F 23.0 °F 51% 29.90 in 10.0 mi NW 13.8 mph 23.0 mph N/A   Scattered Clouds
11:54 AM 41.0 °F 32.8 °F 21.9 °F 47% 29.90 in 10.0 mi NNW 16.1 mph 26.5 mph N/A   Overcast
12:54 PM 45.0 °F 37.4 °F 24.1 °F 44% 29.89 in 10.0 mi NNW 18.4 mph 28.8 mph N/A   Scattered Clouds
1:54 PM 46.0 °F 39.6 °F 24.1 °F 42% 29.90 in 10.0 mi NNW 15.0 mph 21.9 mph N/A   Mostly Cloudy
2:54 PM 48.0 °F - 25.0 °F 41% 29.89 in 10.0 mi NNW 12.7 mph 27.6 mph N/A   Overcast
3:54 PM 50.0 °F - 25.0 °F 38% 29.89 in 10.0 mi NW 16.1 mph 27.6 mph N/A   Mostly Cloudy
4:54 PM 48.0 °F - 25.0 °F 41% 29.91 in 10.0 mi NNW 16.1 mph 25.3 mph N/A   Overcast
5:54 PM 50.0 °F - 26.1 °F 39% 29.92 in 10.0 mi NW 8.1 mph - N/A   Overcast
6:54 PM 48.9 °F - 26.1 °F 41% 29.94 in 10.0 mi NNW 8.1 mph 18.4 mph N/A   Overcast
7:54 PM 48.0 °F - 26.1 °F 42% 29.96 in 10.0 mi NNW 6.9 mph - N/A   Overcast
8:54 PM 45.0 °F 43.5 °F 26.1 °F 48% 29.99 in 10.0 mi NNW 3.5 mph - N/A   Mostly Cloudy
9:54 PM 44.1 °F 41.5 °F 26.1 °F 49% 30.00 in 10.0 mi NNW 4.6 mph - N/A   Clear
10:54 PM 39.9 °F - 26.1 °F 58% 30.01 in 10.0 mi Calm Calm - N/A   Clear
11:54 PM 34.0 °F - 25.0 °F 70% 30.01 in 10.0 mi Calm Calm - N/A   Clear